����,���ϕ���(m/s),���ϕ���,�ő�u�ԕ���(m/s),�ő啗��������,�C��(��),���x(%),10���Ԉړ��ώZ�J��(mm),1���Ԉړ��ώZ�J��(mm),���J��(mm),�݌v�J��(mm)
2019-11-25T00:00:00+09:00,2.6,��쐼,3.3,��쐼,10,96.7,0,0,0,0
2019-11-25T00:01:00+09:00,2.7,��쐼,3.3,��쐼,9.9,96.7,0,0,0,0
2019-11-25T00:02:00+09:00,2.6,��쐼,3.3,��쐼,9.9,96.7,0,0,0,0
2019-11-25T00:03:00+09:00,2.5,��,3.3,��쐼,10,96.8,0,0,0,0
2019-11-25T00:04:00+09:00,2.4,��,3.3,��쐼,9.9,96.8,0,0,0,0
2019-11-25T00:05:00+09:00,2.3,��,3.3,��쐼,9.9,96.8,0,0,0,0
2019-11-25T00:06:00+09:00,2.2,��,3.1,��쐼,9.9,96.8,0,0,0,0
2019-11-25T00:07:00+09:00,2.1,��,3.1,��쐼,9.9,96.9,0,0,0,0
2019-11-25T00:08:00+09:00,2,��,3.1,��쐼,9.9,96.9,0,0,0,0
2019-11-25T00:09:00+09:00,1.9,��,3,��쐼,9.9,96.9,0,0,0,0
2019-11-25T00:10:00+09:00,1.8,��,2.7,��,10,97,0,0,0,0
2019-11-25T00:11:00+09:00,1.8,��,2.7,��,10,97,0,0,0,0
2019-11-25T00:12:00+09:00,1.8,��,2.5,��,10.1,97.1,0,0,0,0
2019-11-25T00:13:00+09:00,1.8,��,2.7,��쐼,10.2,97.3,0,0,0,0
2019-11-25T00:14:00+09:00,1.9,��,2.7,��쐼,10.2,97.3,0,0,0,0
2019-11-25T00:15:00+09:00,2,��,3,��,10.4,97.4,0,0,0,0
2019-11-25T00:16:00+09:00,2.1,��,3.4,��,10.4,97.4,0,0,0,0
2019-11-25T00:17:00+09:00,2.3,��,3.5,��쐼,10.4,97.3,0,0,0,0
2019-11-25T00:18:00+09:00,2.4,��,3.5,��쐼,10.3,97.1,0,0,0,0
2019-11-25T00:19:00+09:00,2.5,��,3.5,��쐼,10.2,96.9,0,0,0,0
2019-11-25T00:20:00+09:00,2.5,��,3.5,��쐼,10.2,96.9,0,0,0,0
2019-11-25T00:21:00+09:00,2.5,��,3.5,��쐼,10.2,96.9,0,0,0,0
2019-11-25T00:22:00+09:00,2.5,��,3.5,��쐼,10.2,96.8,0,0,0,0
2019-11-25T00:23:00+09:00,2.6,��,3.5,��쐼,10.2,96.9,0,0,0,0
2019-11-25T00:24:00+09:00,2.5,��,3.5,��쐼,10.1,96.9,0,0,0,0
2019-11-25T00:25:00+09:00,2.5,��,3.5,��쐼,10.1,96.8,0,0,0,0
2019-11-25T00:26:00+09:00,2.5,��,3.5,��쐼,10.1,96.8,0,0,0,0
2019-11-25T00:27:00+09:00,2.6,��,3.8,��쐼,10.2,96.9,0,0,0,0
2019-11-25T00:28:00+09:00,2.6,��,3.8,��쐼,10.2,97,0,0,0,0
2019-11-25T00:29:00+09:00,2.6,��,3.8,��쐼,10.3,97,0,0,0,0
2019-11-25T00:30:00+09:00,2.6,��쐼,3.8,��쐼,10.3,97,0,0,0,0
2019-11-25T00:31:00+09:00,2.7,��쐼,3.8,��쐼,10.3,97,0,0,0,0
2019-11-25T00:32:00+09:00,2.6,��쐼,3.8,��쐼,10.3,96.9,0,0,0,0
2019-11-25T00:33:00+09:00,2.6,��쐼,3.8,��쐼,10.2,96.9,0,0,0,0
2019-11-25T00:34:00+09:00,2.6,��쐼,3.8,��쐼,10.2,96.9,0,0,0,0
2019-11-25T00:35:00+09:00,2.5,��쐼,3.8,��쐼,10.2,96.9,0,0,0,0
2019-11-25T00:36:00+09:00,2.3,��쐼,3.8,��쐼,10.3,96.9,0,0,0,0
2019-11-25T00:37:00+09:00,2.2,��쐼,3.7,��쐼,10.3,97,0,0,0,0
2019-11-25T00:38:00+09:00,2.2,��쐼,3.7,��쐼,10.4,97,0,0,0,0
2019-11-25T00:39:00+09:00,2.1,��쐼,3,��쐼,10.4,97,0,0,0,0
2019-11-25T00:40:00+09:00,2,��쐼,2.8,��,10.4,97,0,0,0,0
2019-11-25T00:41:00+09:00,1.9,��쐼,2.8,��,10.4,97,0,0,0,0
2019-11-25T00:42:00+09:00,1.9,��쐼,2.8,��,10.4,96.9,0,0,0,0
2019-11-25T00:43:00+09:00,1.8,��쐼,2.8,��,10.4,96.8,0,0,0,0
2019-11-25T00:44:00+09:00,1.7,��쐼,2.8,��,10.5,96.9,0,0,0,0
2019-11-25T00:45:00+09:00,1.7,��쐼,2.8,��,10.5,96.9,0,0,0,0
2019-11-25T00:46:00+09:00,1.6,��쐼,2.8,��,10.5,96.9,0,0,0,0
2019-11-25T00:47:00+09:00,1.6,��쐼,2.8,��,10.5,96.8,0,0,0,0
2019-11-25T00:48:00+09:00,1.5,��쐼,2.7,��,10.5,96.8,0,0,0,0
2019-11-25T00:49:00+09:00,1.4,��쐼,1.9,��쐼,10.5,96.8,0,0,0,0
2019-11-25T00:50:00+09:00,1.3,��쐼,1.8,��쐼,10.5,96.7,0,0,0,0
2019-11-25T00:51:00+09:00,1.3,��쐼,1.8,��쐼,10.5,96.7,0,0,0,0
2019-11-25T00:52:00+09:00,1.2,��쐼,1.7,��쐼,10.5,96.7,0,0,0,0
2019-11-25T00:53:00+09:00,1.2,��쐼,1.7,��쐼,10.5,96.7,0,0,0,0
2019-11-25T00:54:00+09:00,1.2,��,1.7,��쐼,10.6,96.8,0,0,0,0
2019-11-25T00:55:00+09:00,1.3,��,2.4,��,10.6,96.7,0,0,0,0
2019-11-25T00:56:00+09:00,1.4,��,2.7,��,10.5,96.6,0,0,0,0
2019-11-25T00:57:00+09:00,1.5,��,2.7,��,10.6,96.6,0,0,0,0
2019-11-25T00:58:00+09:00,1.5,��,2.7,��,10.6,96.6,0,0,0,0
2019-11-25T00:59:00+09:00,1.7,��,3.3,��,10.6,96.6,0,0,0,0
2019-11-25T01:00:00+09:00,1.8,��,3.3,��,10.6,96.7,0,0,0,0
2019-11-25T01:01:00+09:00,2,��,3.3,��,10.5,96.5,0,0,0,0
2019-11-25T01:02:00+09:00,2.1,��,3.3,��,10.5,96.4,0,0,0,0
2019-11-25T01:03:00+09:00,2.2,��,3.3,��,10.4,96.3,0,0,0,0
2019-11-25T01:04:00+09:00,2.3,��,3.3,��,10.4,96.3,0,0,0,0
2019-11-25T01:05:00+09:00,2.3,��,3.3,��,10.4,96.4,0,0,0,0
2019-11-25T01:06:00+09:00,2.3,��,3.3,��,10.4,96.5,0,0,0,0
2019-11-25T01:07:00+09:00,2.3,��,3.3,��,10.5,96.6,0,0,0,0
2019-11-25T01:08:00+09:00,2.3,��,3.3,��,10.5,96.7,0,0,0,0
2019-11-25T01:09:00+09:00,2.1,��,3,��,10.5,96.6,0,0,0,0
2019-11-25T01:10:00+09:00,2,��쐼,3,��,10.4,96.5,0,0,0,0
2019-11-25T01:11:00+09:00,1.9,��쐼,3,��,10.5,96.6,0,0,0,0
2019-11-25T01:12:00+09:00,1.8,��쐼,2.6,��쐼,10.5,96.7,0,0,0,0
2019-11-25T01:13:00+09:00,1.8,��쐼,2.5,��쐼,10.5,96.7,0,0,0,0
2019-11-25T01:14:00+09:00,1.8,��쐼,2.5,��쐼,10.5,96.6,0,0,0,0
2019-11-25T01:15:00+09:00,1.8,��쐼,2.5,��쐼,10.5,96.6,0,0,0,0
2019-11-25T01:16:00+09:00,1.7,��쐼,2.5,��쐼,10.4,96.5,0,0,0,0
2019-11-25T01:17:00+09:00,1.6,��쐼,2.2,��쐼,10.4,96.5,0,0,0,0
2019-11-25T01:18:00+09:00,1.6,��쐼,2.2,��쐼,10.4,96.5,0,0,0,0
2019-11-25T01:19:00+09:00,1.6,��쐼,2.2,��쐼,10.6,96.7,0,0,0,0
2019-11-25T01:20:00+09:00,1.6,��쐼,2.2,��쐼,10.5,96.7,0,0,0,0
2019-11-25T01:21:00+09:00,1.6,��쐼,2.2,��쐼,10.5,96.6,0,0,0,0
2019-11-25T01:22:00+09:00,1.5,��쐼,2.2,��쐼,10.4,96.5,0,0,0,0
2019-11-25T01:23:00+09:00,1.5,��쐼,2,��쐼,10.4,96.5,0,0,0,0
2019-11-25T01:24:00+09:00,1.4,��쐼,2,��쐼,10.4,96.5,0,0,0,0
2019-11-25T01:25:00+09:00,1.4,�쐼,2,��쐼,10.5,96.6,0,0,0,0
2019-11-25T01:26:00+09:00,1.4,�쐼,2,��쐼,10.6,96.8,0,0,0,0
2019-11-25T01:27:00+09:00,1.4,�쐼,2,��쐼,10.8,97.1,0,0,0,0
2019-11-25T01:28:00+09:00,1.4,�쐼,2,��쐼,10.8,97.1,0,0,0,0
2019-11-25T01:29:00+09:00,1.3,�쐼,1.8,��쐼,10.9,97.1,0,0,0,0
2019-11-25T01:30:00+09:00,1.2,�쐼,1.7,���쐼,10.9,96.9,0,0,0,0
2019-11-25T01:31:00+09:00,1.1,�쐼,1.7,���쐼,10.9,96.9,0,0,0,0
2019-11-25T01:32:00+09:00,1,�쐼,1.7,���쐼,10.8,96.7,0,0,0,0
2019-11-25T01:33:00+09:00,1.1,���쐼,2.6,�k�k��,10.5,96.2,0,0,0,0
2019-11-25T01:34:00+09:00,1.2,���쐼,3,�k�k��,10.3,95.8,0,0,0,0
2019-11-25T01:35:00+09:00,1.3,��,3.4,�k�k��,10.1,95.6,0,0,0,0
2019-11-25T01:36:00+09:00,1.5,��,3.4,�k�k��,10.1,95.7,0,0,0,0
2019-11-25T01:37:00+09:00,1.6,���k��,3.4,�k�k��,10.1,95.9,0,0,0,0
2019-11-25T01:38:00+09:00,1.8,�k��,3.4,�k�k��,10,96,0,0,0,0
2019-11-25T01:39:00+09:00,2,�k��,3.4,�k�k��,10,96.1,0,0,0,0
2019-11-25T01:40:00+09:00,2.1,�k�k��,3.4,�k�k��,10.1,96.4,0,0,0,0
2019-11-25T01:41:00+09:00,2.2,�k�k��,3.4,�k�k��,10,96.3,0,0,0,0
2019-11-25T01:42:00+09:00,2.4,�k�k��,3.4,�k�k��,9.9,96.3,0,0,0,0
2019-11-25T01:43:00+09:00,2.4,�k�k��,3.4,�k�k��,10,96.4,0,0,0,0
2019-11-25T01:44:00+09:00,2.4,�k�k��,3.4,�k�k��,10,96.5,0,0,0,0
2019-11-25T01:45:00+09:00,2.3,�k�k��,3.4,�k�k��,10,96.6,0,0,0,0
2019-11-25T01:46:00+09:00,2.3,�k,3.1,�k,10,96.6,0,0,0,0
2019-11-25T01:47:00+09:00,2.3,�k,3.1,�k,9.9,96.7,0,0,0,0
2019-11-25T01:48:00+09:00,2.3,�k,3.1,�k,10,96.6,0,0,0,0
2019-11-25T01:49:00+09:00,2.2,�k,3.1,�k,10,96.8,0,0,0,0
2019-11-25T01:50:00+09:00,2.3,�k,3.1,�k,10.2,97,0,0,0,0
2019-11-25T01:51:00+09:00,2.3,�k�k��,3.1,�k,10.3,97.2,0,0,0,0
2019-11-25T01:52:00+09:00,2.3,�k�k��,3.1,�k,10.4,97.2,0,0,0,0
2019-11-25T01:53:00+09:00,2.2,�k�k��,3.1,�k,10.4,97.3,0,0,0,0
2019-11-25T01:54:00+09:00,2.2,�k�k��,3.1,�k,10.4,97.2,0,0,0,0
2019-11-25T01:55:00+09:00,2.1,�k�k��,3.1,�k,10.3,97,0,0,0,0
2019-11-25T01:56:00+09:00,2,�k�k��,3,�k,10.3,96.9,0,0,0,0
2019-11-25T01:57:00+09:00,2,�k,2.6,�k�k��,10.2,96.8,0,0,0,0
2019-11-25T01:58:00+09:00,2,�k,2.5,�k�k��,10.2,96.8,0,0,0,0
2019-11-25T01:59:00+09:00,1.9,�k,2.5,�k�k��,10.2,96.8,0,0,0,0
2019-11-25T02:00:00+09:00,1.8,�k,2.3,�k,10.2,96.8,0,0,0,0
2019-11-25T02:01:00+09:00,1.8,�k,2.3,�k,10.2,96.8,0,0,0,0
2019-11-25T02:02:00+09:00,1.7,�k,2.3,�k,10.1,96.7,0,0,0,0
2019-11-25T02:03:00+09:00,1.6,�k,2.3,�k,10,96.6,0,0,0,0
2019-11-25T02:04:00+09:00,1.6,�k,2.3,�k,9.9,96.6,0,0,0,0
2019-11-25T02:05:00+09:00,1.6,�k,2.3,�k,9.9,96.5,0,0,0,0
2019-11-25T02:06:00+09:00,1.6,�k,2.3,�k,9.9,96.6,0,0,0,0
2019-11-25T02:07:00+09:00,1.6,�k,2.3,�k�k��,9.8,96.6,0,0,0,0
2019-11-25T02:08:00+09:00,1.6,�k,2.3,�k�k��,9.7,96.5,0,0,0,0
2019-11-25T02:09:00+09:00,1.6,�k,2.3,�k�k��,9.7,96.4,0,0,0,0
2019-11-25T02:10:00+09:00,1.6,�k,2.5,�k�k��,9.6,96.4,0,0,0,0
2019-11-25T02:11:00+09:00,1.7,�k,2.7,�k,9.7,96.6,0,0,0,0
2019-11-25T02:12:00+09:00,1.8,�k,2.7,�k,9.7,96.8,0,0,0,0
2019-11-25T02:13:00+09:00,2,�k,3,�k,9.7,96.8,0,0,0,0
2019-11-25T02:14:00+09:00,2.1,�k,3.3,�k,9.7,96.8,0,0,0,0
2019-11-25T02:15:00+09:00,2.3,�k,3.5,�k,9.7,96.8,0,0,0,0
2019-11-25T02:16:00+09:00,2.4,�k,3.7,�k,9.6,96.8,0,0,0,0
2019-11-25T02:17:00+09:00,2.6,�k,4,�k�k��,9.6,96.7,0,0,0,0
2019-11-25T02:18:00+09:00,2.8,�k,4.2,�k,9.5,96.7,0,0,0,0
2019-11-25T02:19:00+09:00,2.9,�k,4.5,�k,9.6,96.8,0,0,0,0
2019-11-25T02:20:00+09:00,3.1,�k,4.5,�k,9.6,96.8,0,0,0,0
2019-11-25T02:21:00+09:00,3.2,�k,4.5,�k,9.6,96.9,0,0,0,0
2019-11-25T02:22:00+09:00,3.2,�k,4.5,�k,9.6,96.9,0,0,0,0
2019-11-25T02:23:00+09:00,3.2,�k,4.5,�k,9.6,96.9,0,0,0,0
2019-11-25T02:24:00+09:00,3.2,�k,4.5,�k,9.5,96.9,0,0,0,0
2019-11-25T02:25:00+09:00,3.1,�k,4.5,�k,9.5,96.9,0,0,0,0
2019-11-25T02:26:00+09:00,3.1,�k,4.5,�k,9.6,97,0,0,0,0
2019-11-25T02:27:00+09:00,3,�k,4.5,�k,9.6,97.1,0,0,0,0
2019-11-25T02:28:00+09:00,3,�k,4.5,�k,9.6,97.1,0,0,0,0
2019-11-25T02:29:00+09:00,3.1,�k,4.3,�k,9.5,97.1,0,0,0,0
2019-11-25T02:30:00+09:00,3.1,�k,4.3,�k,9.5,97,0,0,0,0
2019-11-25T02:31:00+09:00,3.2,�k,4.6,�k,9.5,97,0,0,0,0
2019-11-25T02:32:00+09:00,3.3,�k,4.9,�k�k��,9.5,97.1,0,0,0,0
2019-11-25T02:33:00+09:00,3.4,�k,4.9,�k�k��,9.6,97.1,0,0,0,0
2019-11-25T02:34:00+09:00,3.5,�k,4.9,�k�k��,9.6,97.2,0,0,0,0
2019-11-25T02:35:00+09:00,3.6,�k,4.9,�k�k��,9.6,97.2,0,0,0,0
2019-11-25T02:36:00+09:00,3.6,�k,4.9,�k�k��,9.6,97.2,0,0,0,0
2019-11-25T02:37:00+09:00,3.6,�k,4.9,�k�k��,9.6,97.3,0,0,0,0
2019-11-25T02:38:00+09:00,3.5,�k,4.9,�k�k��,9.6,97.3,0,0,0,0
2019-11-25T02:39:00+09:00,3.4,�k,4.9,�k�k��,9.4,97.1,0,0,0,0
2019-11-25T02:40:00+09:00,3.4,�k,4.9,�k�k��,9.3,96.7,0,0,0,0
2019-11-25T02:41:00+09:00,3.2,�k,4.9,�k�k��,9.2,96.8,0,0,0,0
2019-11-25T02:42:00+09:00,3.1,�k,4.7,�k�k��,9.2,96.8,0,0,0,0
2019-11-25T02:43:00+09:00,2.9,�k,4.5,�k�k��,9.2,96.9,0,0,0,0
2019-11-25T02:44:00+09:00,2.7,�k�k��,4.3,�k,9.2,97,0,0,0,0
2019-11-25T02:45:00+09:00,2.5,�k�k��,3.9,�k,9.2,97.1,0,0,0,0
2019-11-25T02:46:00+09:00,2.4,�k�k��,3.5,�k,9.3,97.1,0,0,0,0
2019-11-25T02:47:00+09:00,2.2,�k�k��,3.4,�k,9.3,97.2,0,0,0,0
2019-11-25T02:48:00+09:00,2,�k�k��,3.3,�k�k��,9.3,97.3,0,0,0,0
2019-11-25T02:49:00+09:00,1.8,�k�k��,3.3,�k�k��,9.3,97.3,0,0,0,0
2019-11-25T02:50:00+09:00,1.7,�k�k��,3.3,�k�k��,9.3,97.3,0,0,0,0
2019-11-25T02:51:00+09:00,1.5,�k�k��,2.9,�k�k��,9.2,97.2,0,0,0,0
2019-11-25T02:52:00+09:00,1.5,�k�k��,2.5,�k,9.3,97.3,0,0,0,0
2019-11-25T02:53:00+09:00,1.4,�k,2.5,�k,9.3,97.3,0,0,0,0
2019-11-25T02:54:00+09:00,1.4,�k,2.5,�k,9.3,97.3,0,0,0,0
2019-11-25T02:55:00+09:00,1.4,�k,2.5,�k,9.3,97.4,0,0,0,0
2019-11-25T02:56:00+09:00,1.4,�k,2.5,�k,9.3,97.4,0,0,0,0
2019-11-25T02:57:00+09:00,1.4,�k,2.5,�k,9.4,97.4,0,0,0,0
2019-11-25T02:58:00+09:00,1.5,�k,2.5,�k,9.3,97.4,0,0,0,0
2019-11-25T02:59:00+09:00,1.6,�k,2.5,�k,9.3,97.4,0,0,0,0
2019-11-25T03:00:00+09:00,1.8,�k,2.7,�k�k��,9.3,97.3,0,0,0,0
2019-11-25T03:01:00+09:00,1.9,�k,3.1,�k,9.3,97.3,0,0,0,0
2019-11-25T03:02:00+09:00,2,�k,3.6,�k,9.3,97.4,0,0,0,0
2019-11-25T03:03:00+09:00,2.2,�k,3.8,�k,9.4,97.4,0,0,0,0
2019-11-25T03:04:00+09:00,2.4,�k,4,�k,9.3,97.4,0,0,0,0
2019-11-25T03:05:00+09:00,2.6,�k,4.5,�k,9.3,97.4,0,0,0,0
2019-11-25T03:06:00+09:00,2.8,�k,4.7,�k�k��,9.3,97.4,0,0,0,0
2019-11-25T03:07:00+09:00,3,�k,4.7,�k�k��,9.2,97.4,0,0,0,0
2019-11-25T03:08:00+09:00,3.2,�k,5,�k�k��,9.3,97.3,0,0,0,0
2019-11-25T03:09:00+09:00,3.4,�k,5,�k�k��,9.2,97.4,0,0,0,0
2019-11-25T03:10:00+09:00,3.5,�k,5,�k�k��,9.3,97.4,0,0,0,0
2019-11-25T03:11:00+09:00,3.5,�k,5,�k�k��,9.3,97.5,0,0,0,0
2019-11-25T03:12:00+09:00,3.5,�k,5,�k�k��,9.4,97.5,0,0,0,0
2019-11-25T03:13:00+09:00,3.5,�k,5,�k�k��,9.5,97.6,0,0,0,0
2019-11-25T03:14:00+09:00,3.4,�k,5,�k�k��,9.5,97.7,0,0,0,0
2019-11-25T03:15:00+09:00,3.2,�k�k��,5,�k�k��,9.5,97.6,0,0,0,0
2019-11-25T03:16:00+09:00,2.8,�k�k��,5,�k�k��,9.4,97.6,0,0,0,0
2019-11-25T03:17:00+09:00,2.5,�k�k��,5,�k�k��,9.4,97.6,0,0,0,0
2019-11-25T03:18:00+09:00,2.2,�k�k��,4.9,�k�k��,9.4,97.6,0,0,0,0
2019-11-25T03:19:00+09:00,1.9,�k�k��,4.3,�k�k��,9.4,97.5,0,0,0,0
2019-11-25T03:20:00+09:00,1.6,�k�k��,3.7,�k,9.4,97.5,0,0,0,0
2019-11-25T03:21:00+09:00,1.4,�k�k��,3.5,�k,9.4,97.6,0,0,0,0
2019-11-25T03:22:00+09:00,1.1,�k��,3.5,�k,9.4,97.6,0,0,0,0
2019-11-25T03:23:00+09:00,0.8,���k��,3,�k�k��,9.5,97.6,0,0,0,0
2019-11-25T03:24:00+09:00,0.6,���k��,2.2,�k�k��,9.5,97.6,0,0,0,0
2019-11-25T03:25:00+09:00,0.5,��,1.4,���k��,9.5,97.6,0,0,0,0
2019-11-25T03:26:00+09:00,0.4,���k��,1,�k��,9.5,97.6,0,0,0,0
2019-11-25T03:27:00+09:00,0.4,���k��,1.4,�k,9.5,97.6,0,0,0,0
2019-11-25T03:28:00+09:00,0.5,���k��,1.4,�k,9.5,97.6,0,0,0,0
2019-11-25T03:29:00+09:00,0.5,���k��,1.4,�k,9.4,97.5,0,0,0,0
2019-11-25T03:30:00+09:00,0.6,�k��,1.4,�k,9.4,97.5,0,0,0,0
2019-11-25T03:31:00+09:00,0.6,�k��,1.5,�k,9.4,97.5,0,0,0,0
2019-11-25T03:32:00+09:00,0.7,�k�k��,1.5,�k,9.4,97.5,0,0,0,0
2019-11-25T03:33:00+09:00,0.8,�k�k��,1.6,�k�k��,9.4,97.5,0,0,0,0
2019-11-25T03:34:00+09:00,1,�k,1.9,�k�k��,9.4,97.5,0,0,0,0
2019-11-25T03:35:00+09:00,1.1,�k,2,�k�k��,9.3,97.4,0,0,0,0
2019-11-25T03:36:00+09:00,1.3,�k,2,�k�k��,9.3,97.4,0,0,0,0
2019-11-25T03:37:00+09:00,1.4,�k,2,�k�k��,9.2,97.4,0,0,0,0
2019-11-25T03:38:00+09:00,1.4,�k,2,�k�k��,9.3,97.4,0,0,0,0
2019-11-25T03:39:00+09:00,1.4,�k,2,�k�k��,9.3,97.5,0,0,0,0
2019-11-25T03:40:00+09:00,1.4,�k,2,�k�k��,9.3,97.5,0,0,0,0
2019-11-25T03:41:00+09:00,1.4,�k,2,�k�k��,9.3,97.5,0,0,0,0
2019-11-25T03:42:00+09:00,1.3,�k,2,�k�k��,9.3,97.6,0,0,0,0
2019-11-25T03:43:00+09:00,1.3,�k,2,�k�k��,9.3,97.6,0,0,0,0
2019-11-25T03:44:00+09:00,1.3,�k�k��,2,�k�k��,9.4,97.6,0,0,0,0
2019-11-25T03:45:00+09:00,1.2,�k�k��,1.9,�k,9.3,97.6,0,0,0,0
2019-11-25T03:46:00+09:00,1.1,�k�k��,1.9,�k,9.3,97.6,0,0,0,0
2019-11-25T03:47:00+09:00,1,�k�k��,1.5,�k,9.3,97.6,0,0,0,0
2019-11-25T03:48:00+09:00,0.8,�k��,1.4,�k,9.3,97.6,0,0,0,0
2019-11-25T03:49:00+09:00,0.8,�k��,1.2,�k�k��,9.4,97.6,0,0,0,0
2019-11-25T03:50:00+09:00,0.7,�k�k��,1.1,���k��,9.4,97.7,0,0,0,0
2019-11-25T03:51:00+09:00,0.7,�k�k��,1.1,���k��,9.4,97.7,0,0,0,0
2019-11-25T03:52:00+09:00,0.7,�k�k��,1.1,���k��,9.4,97.6,0,0,0,0
2019-11-25T03:53:00+09:00,0.6,�k��,1.1,���k��,9.4,97.7,0,0,0,0
2019-11-25T03:54:00+09:00,0.6,�k��,1,���쓌,9.5,97.7,0,0,0,0
2019-11-25T03:55:00+09:00,0.5,���k��,1,���쓌,9.5,97.7,0,0,0,0
2019-11-25T03:56:00+09:00,0.5,���k��,1,���쓌,9.5,97.7,0,0,0,0
2019-11-25T03:57:00+09:00,0.5,��,1,���쓌,9.5,97.7,0,0,0,0
2019-11-25T03:58:00+09:00,0.6,���쓌,1,���쓌,9.5,97.7,0,0,0,0
2019-11-25T03:59:00+09:00,0.6,���쓌,1.1,��,9.5,97.7,0,0,0,0
2019-11-25T04:00:00+09:00,0.6,���쓌,1.4,��,9.5,97.7,0,0,0,0
2019-11-25T04:01:00+09:00,0.7,�쓌,1.4,��,9.5,97.7,0,0,0,0
2019-11-25T04:02:00+09:00,0.8,�쓌,1.4,��,9.6,97.7,0,0,0,0
2019-11-25T04:03:00+09:00,0.8,��쓌,1.4,��,9.6,97.7,0,0,0,0
2019-11-25T04:04:00+09:00,0.9,��,1.4,��,9.6,97.7,0,0,0,0
2019-11-25T04:05:00+09:00,0.9,��,1.4,��,9.6,97.7,0,0,0,0
2019-11-25T04:06:00+09:00,1,��,1.4,��,9.6,97.7,0,0,0,0
2019-11-25T04:07:00+09:00,1.1,��,1.7,��,9.8,97.7,0,0,0,0
2019-11-25T04:08:00+09:00,1.2,��,1.7,��,9.9,97.8,0,0,0,0
2019-11-25T04:09:00+09:00,1.2,��,1.7,��,9.7,97.8,0,0,0,0
2019-11-25T04:10:00+09:00,1.1,��,1.7,��,9.7,97.7,0,0,0,0
2019-11-25T04:11:00+09:00,1.1,��쐼,1.7,��,9.7,97.7,0,0,0,0
2019-11-25T04:12:00+09:00,1,��쐼,1.7,��,9.7,97.7,0,0,0,0
2019-11-25T04:13:00+09:00,0.9,��쐼,1.7,��,9.7,97.7,0,0,0,0
2019-11-25T04:14:00+09:00,0.8,��쐼,1.7,��,9.7,97.7,0,0,0,0
2019-11-25T04:15:00+09:00,0.7,�쐼,1.7,��,9.7,97.7,0,0,0,0
2019-11-25T04:16:00+09:00,0.6,�쐼,1.7,��,9.7,97.7,0,0,0,0
2019-11-25T04:17:00+09:00,0.6,���쐼,2,�k��,9.6,97.7,0,0,0,0
2019-11-25T04:18:00+09:00,0.6,��,2,�k��,9.6,97.6,0,0,0,0
2019-11-25T04:19:00+09:00,0.7,���k��,2.5,�k�k��,9.6,97.6,0,0,0,0
2019-11-25T04:20:00+09:00,0.9,���k��,2.5,�k�k��,9.6,97.6,0,0,0,0
2019-11-25T04:21:00+09:00,1.1,�k��,2.7,�k�k��,9.6,97.7,0,0,0,0
2019-11-25T04:22:00+09:00,1.3,�k��,2.9,�k�k��,9.6,97.7,0,0,0,0
2019-11-25T04:23:00+09:00,1.6,�k�k��,3,�k,9.6,97.7,0,0,0,0
2019-11-25T04:24:00+09:00,1.8,�k�k��,3.1,�k�k��,9.6,97.7,0,0,0,0
2019-11-25T04:25:00+09:00,2,�k�k��,3.1,�k�k��,9.6,97.7,0,0,0,0
2019-11-25T04:26:00+09:00,2.2,�k�k��,3.1,�k�k��,9.6,97.7,0,0,0,0
2019-11-25T04:27:00+09:00,2.3,�k�k��,3.1,�k�k��,9.7,97.7,0,0,0,0
2019-11-25T04:28:00+09:00,2.4,�k,3.1,�k�k��,9.7,97.7,0,0,0,0
2019-11-25T04:29:00+09:00,2.4,�k,3.2,�k,9.7,97.7,0,0,0,0
2019-11-25T04:30:00+09:00,2.5,�k,3.5,�k,9.7,97.7,0,0,0,0
2019-11-25T04:31:00+09:00,2.5,�k,3.5,�k,9.7,97.7,0,0,0,0
2019-11-25T04:32:00+09:00,2.5,�k,3.5,�k,9.7,97.7,0,0,0,0
2019-11-25T04:33:00+09:00,2.5,�k,3.5,�k,9.6,97.7,0,0,0,0
2019-11-25T04:34:00+09:00,2.4,�k,3.5,�k,9.7,97.6,0,0,0,0
2019-11-25T04:35:00+09:00,2.4,�k,3.5,�k,9.6,97.6,0,0,0,0
2019-11-25T04:36:00+09:00,2.3,�k,3.5,�k,9.6,97.6,0,0,0,0
2019-11-25T04:37:00+09:00,2.2,�k,3.5,�k,9.6,97.6,0,0,0,0
2019-11-25T04:38:00+09:00,2,�k,3.5,�k,9.6,97.6,0,0,0,0
2019-11-25T04:39:00+09:00,1.9,�k,3.5,�k,9.6,97.6,0,0,0,0
2019-11-25T04:40:00+09:00,1.7,�k,2.9,�k,9.6,97.6,0,0,0,0
2019-11-25T04:41:00+09:00,1.5,�k,2.9,�k,9.6,97.6,0,0,0,0
2019-11-25T04:42:00+09:00,1.4,�k,2.7,�k,9.6,97.6,0,0,0,0
2019-11-25T04:43:00+09:00,1.4,�k,2.3,�k,9.6,97.6,0,0,0,0
2019-11-25T04:44:00+09:00,1.3,�k,2,�k,9.6,97.6,0,0,0,0
2019-11-25T04:45:00+09:00,1.3,�k,2,�k,9.7,97.6,0,0,0,0
2019-11-25T04:46:00+09:00,1.3,�k,2,�k,9.7,97.6,0,0,0,0
2019-11-25T04:47:00+09:00,1.2,�k,2,�k,9.7,97.7,0,0,0,0
2019-11-25T04:48:00+09:00,1.1,�k,2,�k,9.8,97.7,0,0,0,0
2019-11-25T04:49:00+09:00,1,�k,2,�k,9.8,97.7,0,0,0,0
2019-11-25T04:50:00+09:00,0.9,�k,2,�k,9.8,97.7,0,0,0,0
2019-11-25T04:51:00+09:00,0.9,�k,2,�k,9.9,97.7,0,0,0,0
2019-11-25T04:52:00+09:00,0.8,�k�k��,2,�k,9.8,97.7,0,0,0,0
2019-11-25T04:53:00+09:00,0.6,�k��,1.8,�k,9.8,97.7,0,0,0,0
2019-11-25T04:54:00+09:00,0.5,�쐼,1.6,�k,9.9,97.7,0,0,0,0
2019-11-25T04:55:00+09:00,0.5,�쐼,1.3,�k,10,97.7,0,0,0,0
2019-11-25T04:56:00+09:00,0.4,�쐼,1,���쐼,9.9,97.7,0,0,0,0
2019-11-25T04:57:00+09:00,0.5,��쐼,1,���쐼,9.9,97.7,0,0,0,0
2019-11-25T04:58:00+09:00,0.5,��쐼,1,���쐼,9.9,97.7,0,0,0,0
2019-11-25T04:59:00+09:00,0.6,��쐼,1.4,��쐼,9.9,97.6,0,0,0,0
2019-11-25T05:00:00+09:00,0.7,��쐼,1.4,��쐼,9.9,97.6,0,0,0,0
2019-11-25T05:01:00+09:00,0.8,�쐼,1.4,��쐼,9.9,97.6,0,0,0,0
2019-11-25T05:02:00+09:00,0.9,�쐼,1.4,��쐼,9.9,97.6,0,0,0,0
2019-11-25T05:03:00+09:00,0.9,�쐼,1.4,��쐼,9.9,97.6,0,0,0,0
2019-11-25T05:04:00+09:00,1,�쐼,1.4,��쐼,10,97.7,0,0,0,0
2019-11-25T05:05:00+09:00,1.1,�쐼,1.4,��쐼,10.1,97.7,0,0,0,0
2019-11-25T05:06:00+09:00,1.1,�쐼,1.4,��쐼,10,97.7,0,0,0,0
2019-11-25T05:07:00+09:00,1.1,�쐼,1.4,��쐼,10,97.7,0,0,0,0
2019-11-25T05:08:00+09:00,1.1,�쐼,1.4,��쐼,10,97.6,0,0,0,0
2019-11-25T05:09:00+09:00,1.1,�쐼,1.4,���쐼,10.1,97.6,0,0,0,0
2019-11-25T05:10:00+09:00,1,���쐼,1.4,���쐼,10.1,97.7,0,0,0,0
2019-11-25T05:11:00+09:00,0.9,�쐼,1.4,���쐼,10.1,97.6,0,0,0,0
2019-11-25T05:12:00+09:00,0.9,�쐼,1.4,���쐼,10.1,97.6,0,0,0,0
2019-11-25T05:13:00+09:00,0.8,�쐼,1.4,���쐼,10.1,97.6,0,0,0,0
2019-11-25T05:14:00+09:00,0.8,�쐼,1.4,���쐼,10.1,97.6,0,0,0,0
2019-11-25T05:15:00+09:00,0.7,�쐼,1.4,���쐼,10.2,97.7,0,0,0,0
2019-11-25T05:16:00+09:00,0.6,��쐼,1.3,���쐼,10.2,97.7,0,0,0,0
2019-11-25T05:17:00+09:00,0.6,��쐼,1,���쐼,10.2,97.6,0,0,0,0
2019-11-25T05:18:00+09:00,0.6,��쐼,1.3,���쐼,10.2,97.6,0,0,0,0
2019-11-25T05:19:00+09:00,0.7,��쐼,1.4,���쐼,10.2,97.5,0,0,0,0
2019-11-25T05:20:00+09:00,0.7,�쐼,1.4,���쐼,10.2,97.5,0,0,0,0
2019-11-25T05:21:00+09:00,0.8,�쐼,1.4,���쐼,10.1,97.5,0,0,0,0
2019-11-25T05:22:00+09:00,0.7,�쐼,1.4,���쐼,10.1,97.5,0,0,0,0
2019-11-25T05:23:00+09:00,0.7,�쐼,1.4,���쐼,10.2,97.5,0,0,0,0
2019-11-25T05:24:00+09:00,0.7,�쐼,1.4,���쐼,10.2,97.5,0,0,0,0
2019-11-25T05:25:00+09:00,0.6,�쐼,1.4,���쐼,10.2,97.5,0,0,0,0
2019-11-25T05:26:00+09:00,0.5,�쐼,1.4,���쐼,10.2,97.4,0,0,0,0
2019-11-25T05:27:00+09:00,0.5,�쐼,1.4,���쐼,10.2,97.4,0,0,0,0
2019-11-25T05:28:00+09:00,0.4,��쐼,1.4,���쐼,10.2,97.4,0,0,0,0
2019-11-25T05:29:00+09:00,0.3,��쐼,1.1,�쐼,10.2,97.3,0,0,0,0
2019-11-25T05:30:00+09:00,0.2,�É�,0.7,�k�k��,10.2,97.4,0,0,0,0
2019-11-25T05:31:00+09:00,0.3,��,0.9,�k,10.2,97.4,0,0,0,0
2019-11-25T05:32:00+09:00,0.3,��쓌,1,�k,10.1,97.2,0,0,0,0
2019-11-25T05:33:00+09:00,0.4,���k��,1.1,�k,10.1,97.2,0,0,0,0
2019-11-25T05:34:00+09:00,0.5,�k��,1.3,�k,10.1,97.2,0,0,0,0
2019-11-25T05:35:00+09:00,0.6,�k�k��,1.5,�k�k��,10,97.2,0,0,0,0
2019-11-25T05:36:00+09:00,0.7,�k�k��,1.7,�k,10,97.1,0,0,0,0
2019-11-25T05:37:00+09:00,0.9,�k,1.7,�k,10,97.1,0,0,0,0
2019-11-25T05:38:00+09:00,1,�k,1.7,�k,10,97.1,0,0,0,0
2019-11-25T05:39:00+09:00,1.1,�k,1.7,�k,10,97.2,0,0,0,0
2019-11-25T05:40:00+09:00,1.1,�k,1.7,�k,10,97.2,0,0,0,0
2019-11-25T05:41:00+09:00,1.1,�k�k��,1.7,�k,10.1,97.2,0,0,0,0
2019-11-25T05:42:00+09:00,1.2,�k�k��,1.8,�쓌,10.1,97.3,0,0,0,0
2019-11-25T05:43:00+09:00,1.2,�k��,1.8,�쓌,10.1,97.3,0,0,0,0
2019-11-25T05:44:00+09:00,1.2,�k��,1.8,�쓌,10.1,97.3,0,0,0,0
2019-11-25T05:45:00+09:00,1.2,���k��,1.8,�쓌,10.1,97.2,0,0,0,0
2019-11-25T05:46:00+09:00,1.1,��,1.8,�쓌,10.1,97.2,0,0,0,0
2019-11-25T05:47:00+09:00,1,���쓌,1.8,�쓌,10.1,97.3,0,0,0,0
2019-11-25T05:48:00+09:00,0.9,�쓌,1.8,�쓌,10.2,97.3,0,0,0,0
2019-11-25T05:49:00+09:00,0.8,�쓌,1.8,�쓌,10.2,97.3,0,0,0,0
2019-11-25T05:50:00+09:00,0.8,��쓌,1.8,�쓌,10.2,97.3,0,0,0,0
2019-11-25T05:51:00+09:00,0.8,��,1.8,�쓌,10.1,97.3,0,0,0,0
2019-11-25T05:52:00+09:00,0.8,��쐼,1.6,���쓌,10.1,97.2,0,0,0,0
2019-11-25T05:53:00+09:00,0.7,��쐼,1.3,���쓌,10.1,97.2,0,0,0,0
2019-11-25T05:54:00+09:00,0.7,�쐼,1.2,���쐼,10.1,97.2,0,0,0,0
2019-11-25T05:55:00+09:00,0.6,�쐼,1.2,���쐼,10.1,97.2,0,0,0,0
2019-11-25T05:56:00+09:00,0.6,�쐼,1.2,���쐼,10.2,97.2,0,0,0,0
2019-11-25T05:57:00+09:00,0.6,�쐼,1.2,���쐼,10.2,97.2,0,0,0,0
2019-11-25T05:58:00+09:00,0.7,�쐼,1.2,���쐼,10.2,97.2,0,0,0,0
2019-11-25T05:59:00+09:00,0.7,��쐼,1.2,���쐼,10.2,97.2,0,0,0,0
2019-11-25T06:00:00+09:00,0.7,��쐼,1.2,���쐼,10.2,97.2,0,0,0,0
2019-11-25T06:01:00+09:00,0.6,��,1.2,���쐼,10.3,97.2,0,0,0,0
2019-11-25T06:02:00+09:00,0.5,��,1.1,���쐼,10.3,97.2,0,0,0,0
2019-11-25T06:03:00+09:00,0.4,��,1.1,���쐼,10.2,97.2,0,0,0,0
2019-11-25T06:04:00+09:00,0.4,��쓌,0.9,���쓌,10.2,97.2,0,0,0,0
2019-11-25T06:05:00+09:00,0.4,��쓌,0.9,���쓌,10.2,97.1,0,0,0,0
2019-11-25T06:06:00+09:00,0.4,�쓌,0.9,���쓌,10.2,97.1,0,0,0,0
2019-11-25T06:07:00+09:00,0.3,���k��,0.9,���쓌,10.2,97,0,0,0,0
2019-11-25T06:08:00+09:00,0.2,�É�,0.7,���쓌,10.2,97,0,0,0,0
2019-11-25T06:09:00+09:00,0.2,�É�,0.6,�쓌,10.2,97.1,0,0,0,0
2019-11-25T06:10:00+09:00,0.2,�É�,0.6,�쓌,10.3,97.1,0,0,0,0
2019-11-25T06:11:00+09:00,0.2,�É�,0.6,�쓌,10.2,97.1,0,0,0,0
2019-11-25T06:12:00+09:00,0.2,�É�,0.6,�쓌,10.2,97.1,0,0,0,0
2019-11-25T06:13:00+09:00,0.2,�É�,0.6,�쓌,10.2,97,0,0,0,0
2019-11-25T06:14:00+09:00,0.3,�k�k��,0.7,�k�k��,10.2,97,0,0,0,0
2019-11-25T06:15:00+09:00,0.3,�k�k��,0.7,�k�k��,10.1,96.9,0,0,0,0
2019-11-25T06:16:00+09:00,0.3,�k�k��,0.7,�k�k��,10.1,96.9,0,0,0,0
2019-11-25T06:17:00+09:00,0.4,�k�k��,0.7,�k�k��,10.1,96.9,0,0,0,0
2019-11-25T06:18:00+09:00,0.4,�k,0.7,�k�k��,10.1,96.9,0,0,0,0
2019-11-25T06:19:00+09:00,0.4,�k�k��,0.7,�k�k��,10.1,97,0,0,0,0
2019-11-25T06:20:00+09:00,0.5,�k�k��,0.7,�k�k��,10.1,97,0,0,0,0
2019-11-25T06:21:00+09:00,0.5,�k�k��,0.7,�k�k��,10.1,97,0,0,0,0
2019-11-25T06:22:00+09:00,0.5,�k�k��,0.7,�k�k��,10.1,97,0,0,0,0
2019-11-25T06:23:00+09:00,0.6,�k�k��,0.8,�k�k��,10.1,97,0,0,0,0
2019-11-25T06:24:00+09:00,0.6,�k,1,�k,10,97,0,0,0,0
2019-11-25T06:25:00+09:00,0.6,�k,1.1,�k,10.1,97,0,0,0,0
2019-11-25T06:26:00+09:00,0.7,�k,1.2,�k�k��,10.1,97,0,0,0,0
2019-11-25T06:27:00+09:00,0.7,�k,1.2,�k�k��,10,97,0,0,0,0
2019-11-25T06:28:00+09:00,0.8,�k,1.3,�k�k��,10,97,0,0,0,0
2019-11-25T06:29:00+09:00,0.8,�k,1.3,�k�k��,10,97,0,0,0,0
2019-11-25T06:30:00+09:00,0.9,�k�k��,1.3,�k�k��,10,97,0,0,0,0
2019-11-25T06:31:00+09:00,0.9,�k,1.3,�k�k��,9.9,97,0,0,0,0
2019-11-25T06:32:00+09:00,0.9,�k,1.3,�k�k��,10,97,0,0,0,0
2019-11-25T06:33:00+09:00,0.9,�k,1.3,�k�k��,10,97,0,0,0,0
2019-11-25T06:34:00+09:00,0.9,�k,1.3,�k�k��,10,97.1,0,0,0,0
2019-11-25T06:35:00+09:00,0.8,�k,1.3,�k�k��,10,97.1,0,0,0,0
2019-11-25T06:36:00+09:00,0.8,�k,1.3,�k�k��,10.1,97.1,0,0,0,0
2019-11-25T06:37:00+09:00,0.7,�k,1.3,�k�k��,10.1,97.2,0,0,0,0
2019-11-25T06:38:00+09:00,0.7,�k,1.2,�k�k��,10.1,97.2,0,0,0,0
2019-11-25T06:39:00+09:00,0.6,�k,1,�k,10.1,97.1,0,0,0,0
2019-11-25T06:40:00+09:00,0.6,�k�k��,0.8,�k,10.1,97.1,0,0,0,0
2019-11-25T06:41:00+09:00,0.6,�k�k��,0.8,�k,10.1,97.1,0,0,0,0